CW2234 Weather Reports


time (UTC)temp
F
wind
direction
speed
knots
gust
knots
rain 1hr
in
rain 24hr
in
rain mn
in
humidity
%
barometer
mb
20260507033055 62 122 0.9 6.1 0.00 0.00 0.00 84 1016.7
20260507031555 62 131 0.9 8.7 0.00 0.00 0.00 83 1016.7
20260507030058 62 134 0.9 5.2 0.00 0.00 0.00 83 1016.6
20260507024600 63 156 2.6 7.8 0.00 0.00 0.00 82 1016.4
20260507023109 63 117 0.9 7.8 0.00 0.00 0.00 80 1016.2
20260507021557 64 98 2.6 6.1 0.00 0.00 0.00 78 1016.1
20260507020104 64 116 1.7 7.0 0.00 0.00 0.00 77 1016.0
20260507014557 64 132 1.7 9.6 0.00 0.00 0.00 78 1016.0
20260507013052 65 126 1.7 9.6 0.00 0.00 0.00 77 1015.9
20260507011552 66 172 1.7 7.0 0.00 0.00 0.00 75 1016.0
20260507010054 67 144 0.9 5.2 0.00 0.00 0.00 74 1016.1
20260507004554 67 198 0.9 6.1 0.00 0.00 0.00 75 1015.9
20260507003111 67 149 0.9 12.2 0.00 0.00 0.00 74 1016.0
20260507001612 67 124 1.7 7.8 0.00 0.00 0.00 74 1016.0
20260507000058 67 145 1.7 10.4 0.00 0.00 0.00 74 1015.8
20260506234558 68 134 1.7 8.7 0.00 0.00 0.00 72 1015.8
20260506233058 69 122 0.9 7.0 0.00 0.00 0.00 71 1015.9
20260506231608 68 136 2.6 9.6 0.00 0.00 0.00 69 1015.8
20260506230113 68 291 0.9 10.4 0.00 0.00 0.00 69 1015.9
20260506224558 69 208 1.7 7.8 0.00 0.00 0.00 70 1016.1
20260506223109 69 86 0.9 8.7 0.00 0.00 0.00 69 1016.4
20260506221606 69 123 0.9 11.3 0.00 0.00 0.00 68 1016.4
20260506220056 70 114 0.9 7.0 0.00 0.00 0.00 70 1016.8
20260506214557 70 142 1.7 9.6 0.00 0.00 0.00 68 1016.8
20260506213055 70 182 1.7 9.6 0.00 0.00 0.00 67 1017.0
20260506211555 69 88 0.9 7.0 0.00 0.00 0.00 69 1017.1
20260506210058 69 88 2.6 8.7 0.00 0.00 0.00 69 1017.2
20260506204556 69 131 2.6 9.6 0.00 0.00 0.00 68 1017.4
20260506203119 69 120 0.9 7.0 0.00 0.00 0.00 64 1017.5
20260506201556 69 360 1.7 9.6 0.00 0.00 0.00 66 1017.4
20260506200057 69 134 0.9 7.0 0.00 0.00 0.00 67 1017.6
20260506194600 69 171 1.7 8.7 0.00 0.00 0.00 67 1017.7
20260506193104 70 160 0.9 6.1 0.00 0.00 0.00 68 1017.8
20260506191553 70 132 0.9 6.1 0.00 0.00 0.00 68 1018.0
20260506190056 69 112 1.7 7.0 0.00 0.00 0.00 69 1018.1
20260506184559 69 74 0.9 6.1 0.00 0.00 0.00 69 1018.3
20260506183105 69 138 0.9 5.2 0.00 0.00 0.00 69 1018.3
20260506181556 69 157 2.6 9.6 0.00 0.00 0.00 70 1018.4
20260506180058 69 133 0.0 6.1 0.00 0.00 0.00 69 1018.4
20260506174556 69 128 0.9 7.0 0.00 0.00 0.00 68 1018.3
20260506173059 68 134 0.9 3.5 0.00 0.00 0.00 69 1018.3
20260506171553 66 13 0.9 4.3 0.00 0.00 0.00 71 1018.4
20260506170106 65 288 3.5 6.1 0.00 0.00 0.00 72 1018.3
20260506164616 65 340 0.9 4.3 0.00 0.00 0.00 73 1018.2
20260506163108 64 271 1.7 6.1 0.00 0.00 0.00 73 1018.3
20260506161559 64 284 0.0 6.1 0.00 0.00 0.00 76 1018.4
20260506160120 64 279 1.7 6.1 0.00 0.00 0.00 77 1018.4
20260506154559 63 360 2.6 6.1 0.00 0.00 0.00 78 1018.4
20260506153058 62 0 1.7 4.3 0.00 0.00 0.00 80 1018.3
20260506151600 61 277 1.7 5.2 0.00 0.00 0.00 80 1018.5
20260506144555 60 277 1.7 3.5 0.00 0.00 0.00 82 1018.4
20260506143053 59 0 0.9 3.5 0.00 0.00 0.00 84 1018.4
20260506141552 58 254 1.7 3.5 0.00 0.00 0.00 86 1018.3
20260506140056 57 228 0.9 3.5 0.00 0.00 0.00 88 1018.2
20260506134552 56 172 0.9 3.5 0.00 0.00 0.00 89 1018.1
20260506133109 55 105 0.0 0.9 0.00 0.00 0.00 89 1018.0
20260506131616 55 0 0.0 0.9 0.00 0.00 0.00 89 1017.8
20260506130053 55 0 0.0 1.7 0.00 0.00 0.00 89 1017.6
20260506124552 55 104 0.0 0.9 0.00 0.00 0.00 88 1017.4
20260506123052 55 104 0.0 1.7 0.00 0.00 0.00 88 1017.4
20260506121554 55 0 0.0 1.7 0.00 0.00 0.00 87 1017.3
20260506120101 56 0 0.0 1.7 0.00 0.00 0.00 88 1017.3
20260506114553 55 0 0.0 0.0 0.00 0.00 0.00 88 1017.2
20260506113051 55 0 0.0 1.7 0.00 0.00 0.00 87 1017.2
20260506111552 55 0 0.0 0.0 0.00 0.00 0.00 88 1017.2
20260506110109 56 0 0.0 0.0 0.00 0.00 0.00 87 1017.1
20260506104608 56 0 0.0 0.0 0.00 0.00 0.00 87 1017.2
20260506103052 56 0 0.0 1.7 0.00 0.00 0.00 88 1017.2
20260506101552 56 104 0.0 1.7 0.00 0.00 0.00 88 1017.1
20260506094600 57 0 0.0 0.9 0.00 0.00 0.00 87 1017.1
20260506093052 58 0 0.0 0.9 0.00 0.00 0.00 87 1017.0
20260506091552 58 0 0.0 0.9 0.00 0.00 0.00 87 1017.1
20260506090053 58 0 0.0 1.7 0.00 0.00 0.00 86 1017.3
20260506084618 58 0 0.0 0.9 0.00 0.00 0.00 85 1017.4
20260506083053 58 0 0.0 1.7 0.00 0.00 0.00 84 1017.5
20260506081557 58 103 0.0 1.7 0.00 0.00 0.00 83 1017.5
20260506073054 58 101 0.0 0.0 0.00 0.00 0.00 82 1017.6
20260506071558 59 0 0.0 0.9 0.00 0.00 0.00 82 1017.4
20260506061555 59 103 0.0 2.6 0.00 0.00 0.00 83 1017.0
20260506044553 61 0 0.0 2.6 0.00 0.00 0.00 82 1016.3
20260506043056 61 96 0.0 1.7 0.00 0.00 0.00 80 1016.2
20260506041604 61 101 0.0 2.6 0.00 0.00 0.00 79 1016.0
20260506040058 61 101 0.0 1.7 0.00 0.00 0.00 78 1016.0
20260506034557 61 0 0.0 1.7 0.00 0.00 0.00 79 1015.5